N2IVN Weather Reports


Display with metric or nautical units.
time (UTC)temp
F
wind
direction
speed
MPH
gust
MPH
rain 1hr
in
rain 24hr
in
rain mn
in
humidity
%
barometer
mb
20260510054004 52 0 0.0 0.0 0.00 0.00 0.00 96 1010.3
20260510053504 52 0 0.0 0.0 0.00 0.00 0.00 96 1010.3
20260510053004 52 0 0.0 0.0 0.00 0.00 0.00 96 1010.5
20260510052504 52 0 0.0 0.0 0.00 0.00 0.00 96 1010.4
20260510052004 52 0 0.0 0.0 0.00 0.00 0.00 96 1010.4
20260510051504 52 0 0.0 0.0 0.00 0.00 0.00 95 1010.4
20260510051004 52 0 0.0 0.0 0.00 0.00 0.00 95 1010.5
20260510050504 52 0 0.0 0.0 0.00 0.00 0.00 95 1010.6
20260510050005 52 0 0.0 0.0 0.00 0.00 0.00 95 1010.6
20260510045504 52 0 0.0 0.0 0.00 0.00 0.00 95 1010.6
20260510045004 52 0 0.0 0.0 0.00 0.00 0.00 95 1010.6
20260510044005 52 0 0.0 0.0 0.00 0.00 0.00 95 1010.6
20260510043504 52 0 0.0 0.0 0.00 0.00 0.00 95 1010.7
20260510043004 52 0 0.0 0.0 0.00 0.00 0.00 94 1010.7
20260510042504 52 0 0.0 0.0 0.00 0.00 0.00 94 1010.6
20260510042005 53 0 0.0 0.0 0.00 0.00 0.00 94 1010.6
20260510041005 53 0 0.0 0.0 0.00 0.00 0.00 94 1010.6
20260510040504 53 0 0.0 0.0 0.00 0.00 0.00 94 1010.6
20260510040004 53 0 0.0 0.0 0.00 0.00 0.00 94 1010.6
20260510035504 53 0 0.0 0.0 0.00 0.00 0.00 94 1010.6
20260510035004 53 0 0.0 0.0 0.00 0.00 0.00 93 1010.4
20260510034504 53 0 0.0 0.0 0.00 0.00 0.00 93 1010.4
20260510034004 53 0 0.0 0.0 0.00 0.00 0.00 92 1010.4
20260510033505 53 0 0.0 0.0 0.00 0.00 0.00 92 1010.3
20260510033004 53 0 0.0 0.0 0.00 0.00 0.00 92 1010.2
20260510032504 53 0 0.0 0.0 0.00 0.00 0.00 92 1010.2
20260510031504 53 0 0.0 0.0 0.00 0.00 0.00 91 1010.3
20260510031004 53 0 0.0 0.0 0.00 0.00 0.00 91 1010.2
20260510030505 53 0 0.0 0.0 0.00 0.00 0.00 91 1010.2
20260510030004 54 0 0.0 0.0 0.00 0.00 0.00 91 1010.3
20260510025004 54 0 0.0 0.0 0.00 0.00 0.00 91 1010.1
20260510024005 54 0 0.0 0.0 0.00 0.00 0.00 91 1010.2
20260510023004 54 0 0.0 0.0 0.00 0.00 0.00 90 1010.0
20260510022504 54 0 0.0 0.0 0.00 0.00 0.00 90 1009.9
20260510022004 54 0 0.0 0.0 0.00 0.00 0.00 89 1010.0
20260510021503 55 0 0.0 0.0 0.00 0.00 0.00 89 1009.9
20260510020504 55 22 0.0 0.0 0.00 0.00 0.00 88 1010.0
20260510020004 55 22 0.0 0.0 0.00 0.00 0.00 87 1010.1
20260510015504 55 22 0.0 0.0 0.00 0.00 0.00 87 1010.1
20260510015004 55 22 0.0 0.0 0.00 0.00 0.00 87 1010.1
20260510014504 55 22 0.0 0.0 0.00 0.00 0.00 87 1010.1
20260510014004 56 22 0.0 0.0 0.00 0.00 0.00 87 1010.0
20260510013005 56 22 0.0 0.0 0.00 0.00 0.00 85 1010.0
20260510012505 56 22 0.0 0.0 0.00 0.00 0.00 85 1010.1
20260510012004 56 22 0.0 0.0 0.00 0.00 0.00 84 1010.1
20260510011005 57 22 0.0 0.0 0.00 0.00 0.00 85 1010.0
20260510010004 57 22 0.0 0.0 0.00 0.00 0.00 84 1010.0
20260510004504 58 22 0.0 0.0 0.00 0.00 0.00 82 1009.9
20260510004004 58 22 0.0 0.0 0.00 0.00 0.00 82 1009.9
20260510003504 58 22 0.0 0.0 0.00 0.00 0.00 81 1009.9
20260510003004 59 22 0.0 0.0 0.00 0.00 0.00 82 1009.9
20260510002504 59 22 0.0 0.0 0.00 0.00 0.00 81 1009.9
20260510002005 59 22 0.0 0.0 0.00 0.00 0.00 80 1009.9
20260510001504 60 22 0.0 0.0 0.00 0.00 0.00 80 1010.0
20260510001004 60 22 0.0 0.0 0.00 0.00 0.00 80 1009.9
20260510000505 61 22 0.0 0.0 0.00 0.00 0.00 80 1009.9
20260510000005 61 22 0.0 0.0 0.00 0.00 0.00 80 1009.8
20260509235506 61 0 0.0 0.0 0.00 0.00 0.00 80 1009.7
20260509235005 62 0 0.0 0.0 0.00 0.00 0.00 79 1009.7
20260509234505 62 0 0.0 0.0 0.00 0.00 0.00 79 1009.6
20260509234005 62 338 0.0 0.0 0.00 0.00 0.00 79 1009.6
20260509233506 62 0 0.0 0.0 0.00 0.00 0.00 78 1009.6
20260509232507 63 7 0.0 0.0 0.00 0.00 0.00 78 1009.6
20260509232006 63 0 0.0 0.0 0.00 0.00 0.00 78 1009.4
20260509231505 63 68 0.0 2.0 0.00 0.00 0.00 78 1009.3
20260509231005 64 0 0.0 0.0 0.00 0.00 0.00 77 1009.3
20260509230506 64 22 0.0 0.0 0.00 0.00 0.00 76 1009.3
20260509230005 65 356 0.0 0.0 0.00 0.00 0.00 76 1009.2
20260509225505 65 68 1.0 3.0 0.00 0.00 0.00 75 1009.3
20260509224506 66 97 0.0 0.0 0.00 0.00 0.00 74 1009.3
20260509224005 66 0 0.0 0.0 0.00 0.00 0.00 74 1009.3
20260509223505 67 45 0.0 0.0 0.00 0.00 0.00 74 1009.3
20260509223005 67 356 0.0 0.0 0.00 0.00 0.00 73 1009.4
20260509222505 67 45 0.0 0.0 0.00 0.00 0.00 72 1009.5
20260509222006 68 68 0.0 0.0 0.00 0.00 0.00 71 1009.5
20260509221505 68 0 0.0 0.0 0.00 0.00 0.00 69 1009.4
20260509221006 68 3 1.0 3.0 0.00 0.00 0.00 69 1009.5
20260509220505 68 42 1.0 5.0 0.00 0.00 0.00 69 1009.3
20260509220005 68 28 1.0 5.0 0.00 0.00 0.00 68 1009.4
20260509215506 69 11 1.0 5.0 0.00 0.00 0.00 68 1009.3
20260509215005 69 36 0.0 3.0 0.00 0.00 0.00 68 1009.4
20260509214505 69 340 0.0 12.0 0.00 0.00 0.00 68 1009.2
20260509214006 69 1 1.0 8.0 0.00 0.00 0.00 67 1009.3
20260509213505 69 340 1.0 9.0 0.00 0.00 0.00 66 1009.2
20260509213006 70 350 6.0 9.0 0.00 0.00 0.00 65 1009.2
20260509212506 71 343 1.0 12.0 0.00 0.00 0.00 64 1009.2
20260509212006 71 338 0.0 0.0 0.00 0.00 0.00 63 1009.2
20260509211505 72 0 0.0 0.0 0.00 0.00 0.00 62 1009.1
20260509211005 73 45 0.0 0.0 0.00 0.00 0.00 61 1009.1
20260509210506 74 0 0.0 0.0 0.00 0.00 0.00 61 1009.1
20260509210004 74 338 0.0 0.0 0.00 0.00 0.00 62 1009.1
20260509205505 74 338 1.0 5.0 0.00 0.00 0.00 64 1008.7
20260509205005 74 248 0.0 0.0 0.00 0.00 0.00 65 1009.0
20260509204005 74 202 2.0 13.0 0.00 0.00 0.00 64 1009.1
20260509203505 74 203 0.0 0.0 0.00 0.00 0.00 63 1009.2
20260509203005 74 202 2.0 6.0 0.00 0.00 0.00 62 1009.1
20260509202506 74 206 1.0 7.0 0.00 0.00 0.00 63 1009.2
20260509202005 74 225 0.0 1.0 0.00 0.00 0.00 63 1008.9
20260509201005 74 225 3.0 10.0 0.00 0.00 0.00 63 1009.3
20260509200505 74 226 1.0 7.0 0.00 0.00 0.00 63 1009.2
20260509200005 74 202 3.0 12.0 0.00 0.00 0.00 62 1009.3
20260509195505 75 206 3.0 14.0 0.00 0.00 0.00 62 1009.3
20260509194505 76 182 5.0 12.0 0.00 0.00 0.00 62 1009.3
20260509194005 75 224 1.0 16.0 0.00 0.00 0.00 63 1009.3
20260509192505 75 217 5.0 15.0 0.00 0.00 0.00 63 1009.2
20260509192005 76 202 8.0 20.0 0.00 0.00 0.00 63 1009.2
20260509191505 76 215 8.0 15.0 0.00 0.00 0.00 63 1009.3
20260509191005 76 201 8.0 15.0 0.00 0.00 0.00 62 1009.5
20260509190505 77 205 13.0 18.0 0.00 0.00 0.00 61 1009.6
20260509190006 78 180 9.0 20.0 0.00 0.00 0.00 59 1009.5
20260509185504 79 206 11.0 26.0 0.00 0.00 0.00 58 1009.6
20260509184504 80 205 5.0 13.0 0.00 0.00 0.00 55 1009.7
20260509184006 80 202 1.0 15.0 0.00 0.00 0.00 54 1009.7
20260509183505 81 206 9.0 21.0 0.00 0.00 0.00 52 1009.8
20260509183005 82 191 7.0 15.0 0.00 0.00 0.00 52 1009.7
20260509182005 84 216 6.0 13.0 0.00 0.00 0.00 51 1009.6
20260509180505 81 213 6.0 15.0 0.00 0.00 0.00 50 1009.8
20260509180005 82 156 5.0 20.0 0.00 0.00 0.00 50 1009.9
20260509175506 82 217 5.0 17.0 0.00 0.00 0.00 51 1010.0
20260509175005 82 203 5.0 13.0 0.00 0.00 0.00 50 1010.0
20260509174506 82 190 5.0 15.0 0.00 0.00 0.00 50 1010.0
20260509174005 82 217 5.0 22.0 0.00 0.00 0.00 48 1010.0
20260509173506 83 214 6.0 16.0 0.00 0.00 0.00 49 1010.0
20260509173005 82 204 6.0 16.0 0.00 0.00 0.00 48 1010.1
20260509172505 83 192 11.0 22.0 0.00 0.00 0.00 47 1010.4
20260509172005 83 187 7.0 17.0 0.00 0.00 0.00 47 1010.2
20260509171506 83 184 9.0 20.0 0.00 0.00 0.00 47 1010.4
20260509171005 81 216 2.0 16.0 0.00 0.00 0.00 50 1010.4
20260509170505 81 208 10.0 18.0 0.00 0.00 0.00 49 1010.3
20260509170005 81 213 4.0 15.0 0.00 0.00 0.00 50 1010.3
20260509165505 80 200 12.0 18.0 0.00 0.00 0.00 49 1010.4
20260509165005 80 206 10.0 16.0 0.00 0.00 0.00 49 1010.4
20260509163504 79 240 5.0 16.0 0.00 0.00 0.00 52 1010.3
20260509163005 78 227 4.0 12.0 0.00 0.00 0.00 52 1010.3
20260509162505 78 203 11.0 23.0 0.00 0.00 0.00 51 1010.3
20260509162005 78 210 11.0 29.0 0.00 0.00 0.00 53 1010.4
20260509161505 78 208 6.0 16.0 0.00 0.00 0.00 53 1010.4
20260509161006 78 224 20.0 33.0 0.00 0.00 0.00 53 1010.7
20260509160505 78 206 12.0 18.0 0.00 0.00 0.00 53 1010.9
20260509160005 78 196 10.0 22.0 0.00 0.00 0.00 55 1011.0
20260509155504 77 203 11.0 17.0 0.00 0.00 0.00 57 1011.2
20260509155005 77 180 3.0 14.0 0.00 0.00 0.00 57 1011.2
20260509154504 77 220 12.0 22.0 0.00 0.00 0.00 57 1011.4
20260509153505 77 214 9.0 15.0 0.00 0.00 0.00 58 1011.5
20260509153005 77 194 2.0 14.0 0.00 0.00 0.00 59 1011.7
20260509152504 76 213 8.0 14.0 0.00 0.00 0.00 59 1011.7
20260509152005 75 221 2.0 9.0 0.00 0.00 0.00 61 1011.8
20260509151504 74 205 7.0 15.0 0.00 0.00 0.00 60 1011.8
20260509150505 74 214 9.0 22.0 0.00 0.00 0.00 59 1012.0
20260509150005 75 227 8.0 16.0 0.00 0.00 0.00 59 1011.9
20260509145505 75 188 3.0 15.0 0.00 0.00 0.00 60 1011.8
20260509145005 74 218 5.0 13.0 0.00 0.00 0.00 60 1011.8
20260509144505 74 228 11.0 21.0 0.00 0.00 0.00 60 1011.8
20260509144005 74 220 12.0 21.0 0.00 0.00 0.00 59 1011.9
20260509143505 74 195 6.0 13.0 0.00 0.00 0.00 60 1011.8
20260509142505 73 212 5.0 24.0 0.00 0.00 0.00 61 1011.8
20260509142005 73 220 10.0 17.0 0.00 0.00 0.00 60 1011.9
20260509141506 73 217 2.0 16.0 0.00 0.00 0.00 61 1011.9
20260509141005 73 189 4.0 16.0 0.00 0.00 0.00 61 1011.9
20260509140505 73 206 3.0 10.0 0.00 0.00 0.00 61 1011.9
20260509135506 74 222 9.0 16.0 0.00 0.00 0.00 60 1011.7
20260509135005 74 216 4.0 14.0 0.00 0.00 0.00 61 1011.7
20260509134505 73 205 9.0 16.0 0.00 0.00 0.00 62 1011.7
20260509134004 73 208 8.0 14.0 0.00 0.00 0.00 62 1011.7
20260509133505 71 200 7.0 13.0 0.00 0.00 0.00 64 1011.9
20260509132505 70 176 3.0 8.0 0.00 0.00 0.00 66 1011.9
20260509132005 70 209 1.0 5.0 0.00 0.00 0.00 66 1011.8
20260509131505 70 237 1.0 12.0 0.00 0.00 0.00 67 1011.8
20260509131005 70 189 3.0 16.0 0.00 0.00 0.00 66 1011.9
20260509130505 70 196 3.0 10.0 0.00 0.00 0.00 67 1012.0
20260509130005 70 212 8.0 14.0 0.00 0.00 0.00 69 1012.1
20260509125504 67 184 7.0 16.0 0.00 0.00 0.00 72 1012.2
20260509125005 65 211 5.0 14.0 0.00 0.00 0.00 73 1012.2
20260509124505 65 200 5.0 9.0 0.00 0.00 0.00 74 1012.2
20260509124005 65 212 3.0 14.0 0.00 0.00 0.00 75 1012.2
20260509123006 64 189 1.0 10.0 0.00 0.00 0.00 76 1012.1
20260509122505 63 202 1.0 3.0 0.00 0.00 0.00 77 1012.1
20260509121505 62 210 6.0 9.0 0.00 0.00 0.00 79 1012.1
20260509120505 60 197 4.0 10.0 0.00 0.00 0.00 81 1012.2
20260509120005 60 201 2.0 9.0 0.00 0.00 0.00 82 1012.3
20260509115508 60 196 1.0 7.0 0.00 0.00 0.00 82 1012.3
20260509115005 59 208 5.0 13.0 0.00 0.00 0.00 82 1012.3
20260509114506 59 214 1.0 6.0 0.00 0.00 0.00 83 1012.2
20260509114004 59 191 2.0 8.0 0.00 0.00 0.00 83 1012.3
20260509113505 59 184 3.0 7.0 0.00 0.00 0.00 83 1012.3
20260509113005 58 199 3.0 9.0 0.00 0.00 0.00 83 1012.6
20260509112505 58 220 4.0 20.0 0.00 0.00 0.00 84 1012.6
20260509112005 58 228 6.0 9.0 0.00 0.00 0.00 84 1012.6
20260509111505 58 197 2.0 14.0 0.00 0.00 0.00 84 1012.5
20260509111005 58 187 6.0 12.0 0.00 0.00 0.00 84 1012.6
20260509110504 58 194 3.0 10.0 0.00 0.00 0.00 84 1012.4
20260509110004 58 195 5.0 8.0 0.00 0.00 0.00 84 1012.2
20260509104504 57 210 4.0 16.0 0.00 0.00 0.00 84 1012.2
20260509103505 57 228 5.0 9.0 0.00 0.00 0.00 84 1012.2
20260509102505 57 231 3.0 14.0 0.00 0.00 0.00 84 1012.3
20260509102005 57 190 1.0 9.0 0.00 0.00 0.00 84 1012.2
20260509101505 57 203 6.0 12.0 0.00 0.00 0.00 83 1012.3
20260509101005 57 190 3.0 13.0 0.00 0.00 0.00 83 1012.1
20260509100505 57 202 2.0 7.0 0.00 0.00 0.00 83 1012.0
20260509100005 57 214 6.0 12.0 0.00 0.00 0.00 83 1012.1
20260509095504 57 182 6.0 13.0 0.00 0.00 0.00 83 1012.1
20260509094505 57 203 2.0 10.0 0.00 0.00 0.00 82 1012.3
20260509094006 57 211 4.0 13.0 0.00 0.00 0.00 82 1012.1
20260509093505 57 195 5.0 10.0 0.00 0.00 0.00 82 1012.0
20260509093005 57 192 3.0 12.0 0.00 0.00 0.00 82 1011.9
20260509092504 57 192 3.0 6.0 0.00 0.00 0.00 82 1011.8
20260509092004 57 191 3.0 7.0 0.00 0.00 0.00 82 1011.8
20260509091505 56 195 2.0 10.0 0.00 0.00 0.00 82 1011.8
20260509090504 56 210 5.0 9.0 0.00 0.00 0.00 81 1012.1
20260509085504 56 198 2.0 7.0 0.00 0.00 0.00 81 1012.2
20260509085004 56 211 3.0 9.0 0.00 0.00 0.00 80 1012.1
20260509084504 56 191 1.0 10.0 0.00 0.00 0.00 80 1012.1
20260509083504 56 225 2.0 6.0 0.00 0.00 0.00 80 1012.2
20260509083005 56 223 5.0 10.0 0.00 0.00 0.00 80 1012.2
20260509082504 56 211 1.0 10.0 0.00 0.00 0.00 80 1012.2
20260509082004 55 204 3.0 14.0 0.00 0.00 0.00 80 1012.1
20260509080004 55 210 2.0 7.0 0.00 0.00 0.00 80 1012.3
20260509075504 54 190 2.0 7.0 0.00 0.00 0.00 80 1012.3
20260509075004 54 218 2.0 9.0 0.00 0.00 0.00 80 1012.3
20260509074504 54 200 1.0 6.0 0.00 0.00 0.00 80 1012.4
20260509074004 53 183 2.0 10.0 0.00 0.00 0.00 80 1012.3
20260509073505 53 205 2.0 7.0 0.00 0.00 0.00 80 1012.4
20260509073004 53 195 2.0 9.0 0.00 0.00 0.00 80 1012.4
20260509072506 53 205 0.0 3.0 0.00 0.00 0.00 80 1012.4
20260509072004 53 200 1.0 6.0 0.00 0.00 0.00 80 1012.5
20260509071504 53 202 0.0 2.0 0.00 0.00 0.00 80 1012.4
20260509071004 53 185 1.0 8.0 0.00 0.00 0.00 79 1012.5
20260509070505 53 202 0.0 5.0 0.00 0.00 0.00 79 1012.5
20260509070005 53 180 1.0 5.0 0.00 0.00 0.00 79 1012.4
20260509065506 53 202 0.0 0.0 0.00 0.00 0.00 79 1012.4
20260509065004 53 180 0.0 2.0 0.00 0.00 0.00 78 1012.4
20260509064504 53 202 0.0 3.0 0.00 0.00 0.00 78 1012.5
20260509064005 53 191 0.0 3.0 0.00 0.00 0.00 78 1012.7
20260509063504 53 180 0.0 0.0 0.00 0.00 0.00 77 1012.6
20260509062504 53 192 0.0 3.0 0.00 0.00 0.00 77 1012.7
20260509062004 53 191 1.0 6.0 0.00 0.00 0.00 77 1012.7
20260509061505 53 202 0.0 0.0 0.00 0.00 0.00 77 1012.8
20260509060504 53 192 1.0 6.0 0.00 0.00 0.00 77 1012.9
20260509060005 53 202 1.0 3.0 0.00 0.00 0.00 76 1012.9
20260509055504 53 225 1.0 6.0 0.00 0.00 0.00 76 1012.9
20260509054504 53 188 1.0 3.0 0.00 0.00 0.00 76 1012.9